Fort Rucker / Ozark, AL

10:09 PM CDT on March 22, 2017 (GMT -0500)
Fort Rucker / Ozark

Weather History for KHEY - March, 2013

Change the Weather History Date:

Saturday, March 16, 2013

  Actual Average (KOZR) Record (KOZR)
Temperature  
Mean Temperature 61 °F -  
Max Temperature 77 °F 67 °F 85 °F (2012)
Min Temperature 45 °F 46 °F 28 °F (2017)
Degree Days  
Heating Degree Days 4    
Growing Degree Days 11 (Base 50)    
Moisture  
Dew Point 48 °F    
Average Humidity 71    
Maximum Humidity 100    
Minimum Humidity 34    
Precipitation  
Precipitation 0.00 in - - ()
Sea Level Pressure  
Sea Level Pressure 29.87 in    
Wind  
Wind Speed 3 mph (SW)    
Max Wind Speed 9 mph    
Max Gust Speed 22 mph    
Visibility 8 miles    
Events      
Averages and records for this station are not official NWS values.
T = Trace of Precipitation, MM = Missing Value Source: NWS Daily Summary

Daily Weather History Graph

Daily Weather History Graph

Search for Another Location

Airport or City:

Trip Planner

Search our weather history database for the weather conditions in past years. The results will help you decide how hot, cold, wet, or windy it might be!

Date:

Astronomy

Mar. 16, 2013 Rise Set
Actual Time 6:51 AM CDT 6:51 PM CDT
Civil Twilight 6:26 AM CDT 7:15 PM CDT
Nautical Twilight 5:58 AM CDT 7:43 PM CDT
Astronomical Twilight 5:30 AM CDT 8:12 PM CDT
Moon 9:39 AM CDT (3/16) 11:39 PM CDT (3/16)
Length of Visible Light 12h 48m
Length of Day
12h 00m
Waxing Crescent, 23% of the Moon is Illuminated
Mar 16
Waxing Crescent
Mar 19
First Quarter
Mar 27
Full
Apr 2
Last Quarter
Apr 10
New

Hourly Weather History & Observations

Time (CDT) Temp. Dew Point Humidity Pressure Visibility Wind Dir Wind Speed Gust Speed Precip Events Conditions
12:53 AM 53.1 °F 46.9 °F 80% 29.78 in 10.0 mi SW 3.5 mph - N/A   Clear
1:53 AM 51.1 °F 46.9 °F 86% 29.78 in 10.0 mi SSW 3.5 mph - N/A   Clear
2:53 AM 50.0 °F 48.0 °F 93% 29.76 in 10.0 mi SSW 4.6 mph - N/A   Clear
3:53 AM 46.9 °F 45.0 °F 93% 29.75 in 10.0 mi Calm Calm - N/A   Clear
4:53 AM 46.0 °F 43.0 °F 89% 30.05 in 6.0 mi Calm Calm - N/A   Clear
5:53 AM 45.0 °F 43.0 °F 93% 30.06 in 8.0 mi Calm Calm - N/A   Clear
6:53 AM 46.9 °F 46.0 °F 97% 30.06 in 2.5 mi SW 3.5 mph - N/A   Clear
7:07 AM 46.4 °F 46.4 °F 100% 30.10 in 1.8 mi Calm Calm - N/A   Scattered Clouds
7:18 AM 46.4 °F 46.4 °F 100% 30.10 in 1.0 mi Calm Calm - N/A   Mist
7:29 AM 46.4 °F 46.4 °F 100% 30.11 in 0.8 mi Calm Calm - N/A   Mist
7:53 AM 48.9 °F 48.0 °F 97% 30.08 in 2.5 mi Calm Calm - N/A   Scattered Clouds
8:00 AM 50.0 °F 48.2 °F 94% 30.12 in 4.0 mi Calm Calm - N/A   Partly Cloudy
8:53 AM 57.0 °F 52.0 °F 83% 30.08 in 10.0 mi Variable 3.5 mph - N/A   Clear
9:53 AM 66.0 °F 51.1 °F 59% 29.78 in 10.0 mi SW 8.1 mph - N/A   Clear
10:53 AM 69.1 °F 46.9 °F 45% 29.78 in 10.0 mi West 9.2 mph 19.6 mph N/A   Clear
11:53 AM 72.0 °F 48.0 °F 43% 29.76 in 10.0 mi Variable 5.8 mph - N/A   Clear
12:53 PM 75.0 °F 45.0 °F 34% 29.75 in 10.0 mi West 9.2 mph 16.1 mph N/A   Clear
1:53 PM 75.0 °F 45.0 °F 34% 29.72 in 10.0 mi SW 8.1 mph 18.4 mph N/A   Clear
2:53 PM 75.9 °F 48.0 °F 37% 29.68 in 10.0 mi WSW 8.1 mph 21.9 mph N/A   Clear
3:53 PM 77.0 °F 48.0 °F 36% 29.66 in 10.0 mi SW 8.1 mph 19.6 mph N/A   Partly Cloudy
4:53 PM 75.0 °F 50.0 °F 41% 29.65 in 10.0 mi SW 8.1 mph 19.6 mph N/A   Clear
5:53 PM 73.9 °F 48.9 °F 41% 29.94 in 10.0 mi Variable 5.8 mph - N/A   Clear
6:53 PM 70.0 °F 48.9 °F 47% 29.96 in 10.0 mi Variable 5.8 mph 16.1 mph N/A   Clear
7:53 PM 66.9 °F 50.0 °F 54% 29.97 in 10.0 mi SSW 3.5 mph - N/A   Clear
8:53 PM 64.0 °F 52.0 °F 65% 29.70 in 10.0 mi SSW 3.5 mph - N/A   Clear
9:53 PM 62.1 °F 53.1 °F 72% 29.72 in 10.0 mi SSW 3.5 mph - N/A   Clear
10:53 PM 60.1 °F 54.0 °F 80% 29.72 in 10.0 mi SSW 3.5 mph - N/A   Clear
11:53 PM 59.0 °F 54.0 °F 83% 29.72 in 10.0 mi Calm Calm - N/A   Clear